{"data":{"norad_id":63300,"intl_designator":"2025-056A","name":"KINEIS-4E","alt_names":[],"object_type":"PAYLOAD","status":"ACTIVE","operator":null,"country":"FR","launch_date":"2025-03-18","launch_site_code":"RLLB","launch_vehicle":null,"mission":null,"orbit_class":"UNKNOWN","rcs_meters":null,"size_class":null,"mass_kg":null,"dimensions":null,"purposes":[],"wikipedia_slug":null,"has_3d_model":false,"image_url":null,"decayed_at":null,"tle_current":{"epoch":"2026-05-25T03:24:28.497600Z","epoch_age_seconds":63082,"freshness":"FRESH","line1":"1 63300U 25056A   26145.14199650  .00001270  00000+0  20809-3 0  9994","line2":"2 63300  97.9012 269.6779 0001156 173.8641 186.2581 14.72405799 63739","mean_motion":14.72405799,"eccentricity":0.0001156,"inclination_deg":97.9012,"raan_deg":269.6779,"arg_perigee_deg":173.8641,"mean_anomaly_deg":186.2581,"bstar":0.00020809,"rev_number":6373,"period_min":97.799125823736,"perigee_km":652.58546216067,"apogee_km":654.21115312379,"semimajor_km":7031.5353076422,"source":"CELESTRAK","updated_at":"2026-05-25T13:38:03.647405Z"}}}